Flag for Germany Weather past 2 weeks in Löhne, North Rhine-Westphalia, Germany

Now
41 °F

Passing clouds.


Feels Like: 41 °F
Forecast: 35 / 53 °F
Wind: 2 mph from East

Location: Bueckeburg

Current Time: Apr 28, 2015 at 12:53:32 AM

Latest Report: Apr 27, 2015 at 11:51 PM


Visibility: N/A

Pressure: 29.83 "Hg

Humidity: 70%

Dew point: 32 °F

Location of LöhneLocation

Historic Weather in Löhne — Graph

°F

Löhne temperature yesterday

Maximum temperature yesterday: 52 °F (at 12:01 AM)
Minimum temperature yesterday: 43 °F (at 11:20 PM)
Average temperature yesterday: 47 °F

Past Weeks' High & Low Weather Summary

 TemperatureHumidityPressure
High73 °F (Apr 15, 3:20 PM)100% (Apr 23, 7:20 AM)30.45 "Hg (Apr 23, 7:20 AM)
Low34 °F (Apr 18, 5:20 AM)28% (Apr 21, 3:20 PM)29.62 "Hg (Apr 27, 3:46 AM)
Average51 °F69%30.08 "Hg
* Reported Apr 12 11:20 PM — Apr 27 11:20 PM, Löhne, Weather by CustomWeather, © 2015

Note: Actual official high and low records may vary slightly from our data, if they occured in-between our weather recording intervals... More about our weather records

Advertising

Löhne weather history for previous 24 hours

 ConditionsComfort  
Time TempWeatherWind HumidityBarometerVisibility
11:20 PM
Mon, Apr 27
43 °FPassing clouds.5 mph71%29.83 "HgN/A
10:20 PM45 °FPartly cloudy.7 mph76%29.80 "HgN/A
9:20 PM46 °FBroken clouds.7 mph71%29.80 "HgN/A
8:20 PM48 °FPartly sunny.5 mph58%29.77 "HgN/A
7:20 PM50 °FPartly sunny.9 mph54%29.77 "HgN/A
6:20 PM50 °FPartly sunny.8 mph62%29.77 "HgN/A
5:20 PM50 °FBroken clouds.7 mph67%29.77 "HgN/A
4:20 PM50 °FPartly sunny.8 mph62%29.77 "HgN/A
3:20 PM50 °FBroken clouds.10 mph62%29.77 "HgN/A
2:20 PM48 °FPartly sunny.13 mph71%29.74 "HgN/A
1:20 PM46 °FPartly sunny.10 mph87%29.74 "HgN/A
1:00 PM46 °FFog.8 mph93%29.74 "Hg3 mi
12:48 PM45 °FFog.8 mph93%29.74 "Hg2 mi
12:20 PM45 °FDrizzle. Fog.9 mph93%29.74 "Hg1 mi
11:20 AM45 °FDrizzle. Fog.10 mph93%29.71 "Hg2 mi
10:20 AM45 °FDrizzle. Fog.10 mph93%29.68 "Hg3 mi
9:20 AM45 °FLight rain. Broken clouds.8 mph93%29.68 "Hg4 mi
8:58 AM45 °FLight rain. Fog.8 mph100%29.68 "Hg3 mi
8:20 AM46 °FRain. Fog.7 mph93%29.65 "Hg2 mi
7:20 AM46 °FRain. Fog.9 mph93%29.65 "Hg2 mi
6:50 AM46 °FRain. Fog.7 mph93%29.62 "Hg2 mi
6:20 AM46 °FRain. Fog.6 mph100%29.62 "Hg3 mi
5:20 AM46 °FRain. Fog.6 mph100%29.62 "Hg2 mi
4:20 AM48 °FRain. Fog.5 mph94%29.62 "Hg2 mi
3:46 AM48 °FRain. Fog.5 mph100%29.62 "Hg2 mi
3:20 AM48 °FLight rain. Fog.6 mph100%29.65 "Hg2 mi
2:20 AM50 °FLight rain. Fog.5 mph94%29.65 "Hg1 mi
1:20 AM50 °FFog.5 mph100%29.68 "Hg1 mi
12:59 AM50 °FFog.5 mph100%29.68 "Hg1 mi
12:20 AM52 °FFog.5 mph94%29.68 "Hg2 mi
12:01 AM52 °FLight rain. Fog.2 mph94%29.68 "Hg2 mi
Weather by CustomWeather, © 2015

See weather overviewHow to use our weather pages